Location: Ripley
(48.3812°N, 115.4473°W)
Time: 12:20:42
(UTC+00:00)

AIST 2D - Pass Details

Date: 09 July 2022
Orbit: 433 x 443 km, 97.0° (Epoch: 11 August)

Event Time Altitude Azimuth Distance (km) Brightness Sun altitude
Rises 04:39:50 0° 23° (NNE) 2,433 ? -7.8°
Reaches altitude 10° 04:42:07 10° 38° (NE) 1,560 ? -8.1°
Maximum altitude 04:44:55 25° 95° (E) 941 ? -8.4°
Enters shadow 04:47:25 12° 149° (SSE) 1,452 ? -8.7°
